Weather History for LGMT - October, 2012

Change the Weather History Date:

Tuesday, October 30, 2012

  Actual Average Record
Temperature  
Mean Temperature 67 °F -  
Max Temperature 75 °F 63 °F 75 °F (2008)
Min Temperature 59 °F 53 °F 50 °F (2000)
Cooling Degree Days 2    
Growing Degree Days 17 (Base 50)    
Moisture  
Dew Point 51 °F    
Average Humidity 54    
Maximum Humidity 83    
Minimum Humidity 43    
Precipitation  
Precipitation 0.00 in 0.12 in - ()
Sea Level Pressure  
Sea Level Pressure 29.82 in    
Wind  
Wind Speed 7 mph ()    
Max Wind Speed 16 mph    
Max Gust Speed 26 mph    
Visibility 6.3 miles    
Events Thunderstorm    
Averages and records for this station are not official NWS values.
T = Trace of Precipitation, MM = Missing Value Source: Averaged Metar Reports

Daily Weather History Graph

Daily Weather History Graph

Search for Another Location

Airport or City:

Trip Planner

Search our weather history database for the weather conditions in past years. The results will help you decide how hot, cold, wet, or windy it might be!

Date:

Astronomy

Oct. 30, 2012 Rise Set
Actual Time 6:39 AM EET 5:14 PM EET
Civil Twilight 6:11 AM EET 5:42 PM EET
Nautical Twilight 5:39 AM EET 6:13 PM EET
Astronomical Twilight 5:08 AM EET 6:44 PM EET
Moon 5:32 PM EET (10/30) 7:07 AM EET (10/30)
Length of Visible Light 11h 30m
Length of Day
10h 35m
Full, 100% of the Moon is Illuminated
Oct 30
Full
Nov 7
Last Quarter
Nov 14
New
Nov 20
First Quarter
Nov 28
Full

Hourly Weather History & Observations

Time (EET) Temp. Dew Point Humidity Pressure Visibility Wind Dir Wind Speed Gust Speed Precip Events Conditions
12:50 AM 69.8 °F 64.4 °F 83% 29.71 in 6.2 mi SE 13.8 mph - N/A Thunderstorm Thunderstorm
1:50 AM 71.6 °F 62.6 °F 73% 29.71 in 6.2 mi WSW 4.6 mph - N/A Thunderstorm Thunderstorm
2:00 AM 71 °F 63 °F 70% 29.71 in 6 mi WSW 4.6 mph - - Thunderstorm Thunderstorm
2:50 AM 69.8 °F 55.4 °F 60% 29.71 in 6.2 mi Variable 3.5 mph - N/A Thunderstorm Thunderstorm
3:50 AM 68.0 °F 55.4 °F 64% 29.71 in 6.2 mi WNW 4.6 mph - N/A   Scattered Clouds
4:20 AM 68.0 °F 55.4 °F 64% 29.71 in 6.2 mi West 6.9 mph - N/A   Scattered Clouds
4:50 AM 68.0 °F 51.8 °F 56% 29.71 in 6.2 mi South 5.8 mph - N/A   Scattered Clouds
5:20 AM 68.0 °F 51.8 °F 56% 29.71 in 6.2 mi South 5.8 mph - N/A   Scattered Clouds
5:50 AM 66.2 °F 50.0 °F 56% 29.74 in 6.2 mi Variable 3.5 mph - N/A   Scattered Clouds
6:20 AM 66.2 °F 50.0 °F 56% 29.74 in 6.2 mi Variable 3.5 mph - N/A   Scattered Clouds
6:50 AM 66.2 °F 51.8 °F 60% 29.74 in 6.2 mi SW 5.8 mph - N/A   Scattered Clouds
7:20 AM 66.2 °F 51.8 °F 60% 29.77 in 6.2 mi SW 8.1 mph - N/A   Scattered Clouds
7:50 AM 68.0 °F 51.8 °F 56% 29.77 in 6.2 mi WSW 9.2 mph - N/A   Scattered Clouds
8:00 AM 67 °F 52 °F 47% 29.78 in 6 mi WSW 9.2 mph - -   Partly Cloudy
8:20 AM 69.8 °F 51.8 °F 53% 29.77 in 6.2 mi WSW 9.2 mph - N/A   Scattered Clouds
8:50 AM 71.6 °F 53.6 °F 53% 29.77 in 6.2 mi SW 8.1 mph - N/A   Scattered Clouds
9:20 AM 71.6 °F 53.6 °F 53% 29.80 in 6.2 mi SW 11.5 mph - N/A   Scattered Clouds
9:50 AM 73.4 °F 51.8 °F 47% 29.80 in 6.2 mi SW 13.8 mph 26.5 mph N/A   Scattered Clouds
10:20 AM 73.4 °F 51.8 °F 47% 29.83 in 6.2 mi SW 13.8 mph - N/A   Scattered Clouds
10:50 AM 73.4 °F 51.8 °F 47% 29.83 in 6.2 mi WSW 11.5 mph - N/A   Scattered Clouds
11:20 AM 73.4 °F 51.8 °F 47% 29.83 in 6.2 mi SW 11.5 mph - N/A   Scattered Clouds
11:50 AM 73.4 °F 51.8 °F 47% 29.83 in 6.2 mi SW 13.8 mph - N/A   Scattered Clouds
12:20 PM 75.2 °F 51.8 °F 44% 29.83 in 6.2 mi SW 16.1 mph - N/A   Scattered Clouds
12:50 PM 75.2 °F 51.8 °F 44% 29.83 in 6.2 mi SW 12.7 mph - N/A   Scattered Clouds
1:20 PM 75.2 °F 51.8 °F 44% 29.83 in 6.2 mi SW 11.5 mph - N/A   Scattered Clouds
1:50 PM 75.2 °F 51.8 °F 44% 29.83 in 6.2 mi WSW 8.1 mph - N/A   Scattered Clouds
2:20 PM 75.2 °F 51.8 °F 44% 29.83 in 6.2 mi WSW 8.1 mph - N/A   Scattered Clouds
2:50 PM 75.2 °F 51.8 °F 44% 29.86 in 6.2 mi WNW 6.9 mph - N/A   Scattered Clouds
3:20 PM 75.2 °F 51.8 °F 44% 29.86 in 6.2 mi WNW 6.9 mph - N/A   Scattered Clouds
3:50 PM 73.4 °F 50.0 °F 44% 29.86 in 6.2 mi WNW 5.8 mph - N/A   Partly Cloudy
4:20 PM 71.6 °F 50.0 °F 46% 29.86 in 6.2 mi WNW 5.8 mph - N/A   Partly Cloudy
4:50 PM 69.8 °F 46.4 °F 43% 29.86 in 6.2 mi WNW 4.6 mph - N/A   Partly Cloudy
5:20 PM 69.8 °F 46.4 °F 43% 29.86 in 6.2 mi WNW 4.6 mph - N/A   Partly Cloudy
5:50 PM 66.2 °F 48.2 °F 52% 29.89 in 6.2 mi Variable 3.5 mph - N/A   Partly Cloudy
6:20 PM 64.4 °F 48.2 °F 56% 29.89 in 6.2 mi Variable 3.5 mph - N/A   Partly Cloudy
6:50 PM 64.4 °F 46.4 °F 52% 29.89 in 6.2 mi Variable 3.5 mph - N/A   Partly Cloudy
7:20 PM 62.6 °F 46.4 °F 55% 29.92 in 6.2 mi Variable 3.5 mph - N/A   Partly Cloudy
7:50 PM 59.0 °F 44.6 °F 59% 29.92 in 6.2 mi Variable 3.5 mph - N/A   Partly Cloudy
8:00 PM 60 °F 44 °F 45% 29.93 in 9 mi 3.5 mph - -   Scattered Clouds
8:20 PM 59.0 °F 44.6 °F 59% 29.92 in 6.2 mi Variable 3.5 mph - N/A   Partly Cloudy
8:50 PM 59.0 °F 44.6 °F 59% 29.92 in 6.2 mi Variable 3.5 mph - N/A   Partly Cloudy
9:20 PM 59.0 °F 44.6 °F 59% 29.92 in 6.2 mi Variable 3.5 mph - N/A   Partly Cloudy
9:50 PM 59.0 °F 44.6 °F 59% 29.95 in 6.2 mi Variable 3.5 mph - N/A   Scattered Clouds
10:20 PM 59.0 °F 48.2 °F 67% 29.95 in 6.2 mi SW 6.9 mph - N/A   Scattered Clouds
10:50 PM 59.0 °F 48.2 °F 67% 29.95 in 6.2 mi SW 6.9 mph - N/A   Scattered Clouds
11:50 PM 59.0 °F 48.2 °F 67% 29.86 in 6.2 mi SW 5.8 mph - N/A   Scattered Clouds